Showing default

TIANQI 30, 61196

Orbit data source: Space-Track

TIANQI 30, 61196 is a payload satellite owned by Guodian Gaokeji (CN) in LEO that was launched on Fri, 20 Sep 2024 UTC via a KUAIZHOU-1A launch vehicle from the Xichang Space Center, China (XSC). Payload-class satellites include a variety of spacecraft equipped with specific instruments for various scientific and technological missions. These include communications satellites like Starlink; space stations such as the ISS; scientific satellites like the Hubble; Earth observation satellites from companies like Planet Labs, Umbra, and HawkEye 360; GPS; miniature CubeSats for education and research; and military/defense satellites.

Loading next visibility...
Identifier
61196, 2024-170B
Orbit
LEO
Country
Flag of CNCN / PRC
Related business
Manufacturer
Shanghai ASES
Mission
Operational Commercial Communications
Bus & Motor
STARLIGHTB, Unknown motor
Mass
40 kg wet, ~40 kg dry
Launch date (UTC)
2024-09-20 (1 year ago)
Launch vehicle
KUAIZHOU-1A
Launch site
Xichang Space Center, China (XSC)
Object type
Payload
Rocket body
Debris
Shape & HBR
Box, 0.3 m
Radar Cross Section
0.195 m², Medium (>0.1 m² and < 1m²)

Expand to show TLE details & history
Last TLE update: 19 hours ago

TLE from 19 hours ago
0 TIANQI 30
1 61196U 24170B   25249.29043544  .00000226  00000-0  24311-3 0  9994
2 61196  44.8588 322.7055 0009599 199.2487 160.7982 13.98998388 49291
Epoch: 2025-09-06T06:58Z
TLE epoch observation values (Epoch: 2025-09-06T06:58:13.622Z)
Latitude
-0.00001°
Longitude
-127.47765°
Altitude
903.845 km
Speed
7.398 km/s
True Right ascension
21h 30m 49s
True Declination
0° 00' 00"
Sunlit
Object was in full shadow at epoch
Visualization orbit readout
Latitude
Unknown
Longitude
Unknown
Altitude
Unknown
Speed
Unknown
Apparent Right ascension
Unknown
Apparent Declination
Unknown
Sunlit
N/A
Visualization observer readout
Local Sidereal Time
18:19:47
Azimuth
Unknown
Elevation
Unknown
Doppler factor
Unknown
Orbital elements
Apogee altitude
905.791 km
Perigee altitude
891.821 km
Semi-major axis
7,276.943 km
Eccentricity
0.00096
Inclination
44.8588°
RAAN
322.7055°
Arg. of periapsis
199.2487°
True anomaly
160.83434°
Mean anomaly
160.7982°
Eccentric anomaly
160.81627°
Mean motion
3.49639 °/min
Orbital period
102.96 mins
BSTAR
0.00024311
Loading maneuver chart data...
Computing Atmospheric mass density...
Loading historical data...
Loading historical data...
Loading historical data...
Loading historical data...
Loading historical data...
Loading historical data...
Loading historical data...
Other satellites on launch #170 in the year 2024 (2024-09-20 UTC)

Documentation

Showing up to 5 results
|